Location: Forst
(46.9333°N, 15.4333°E)
Time: 16:30:26
(UTC+00:00)

Cosmos 1656 Rocket - Pass Details

Date: 01 December 2020
Orbit: 796 x 846 km, 71.1° (Epoch: 27 January)

Event Time Altitude Azimuth Distance (km) Brightness Sun altitude
Rises 17:03:09 0° 334° (NNW) 3,406 7.0 -18.4°
Reaches altitude 10° 17:05:38 10° 337° (NNW) 2,462 6.2 -18.8°
Maximum altitude 17:11:17 71° 61° (ENE) 881 3.5 -19.8°
Drops below altitude 10° 17:16:48 10° 146° (SE) 2,415 5.8 -20.7°
Enters shadow 17:17:22 - 146° (SSE) 2,625 6.0 -20.8°
